Location: Betra
(48.4113°N, 8.6634°E)
Time: 18:15:38
(UTC+00:00)

Cosmos 1892 - Pass Details

Date: 23 May 2024
Orbit: 455 x 468 km, 82.5° (Epoch: 16 June)

Event Time Altitude Azimuth Distance (km) Brightness Sun altitude
Exits shadow 02:40:38 - 187° (S) 2,017 5.2 -8.0°
Reaches altitude 10° 02:41:37 10° 187° (S) 1,602 4.7 -7.8°
Maximum altitude 02:45:07 86° 99° (E) 467 2.5 -7.4°
Drops below altitude 10° 02:48:38 10° 10° (N) 1,610 6.1 -7.0°
Sets 02:50:43 0° 10° (N) 2,488 7.1 -6.7°
